Regional Weather Roundup
Issued by NWS

Home | Current Version | Previous Version | Graphics & Text | Print | Product List | Glossary On
Versions: 1 2 3 4 5 6 7 8 9 10 11 12 13 14 15 16 17 18 19 20 21 22 23 24 25 26 27 28 29 30 31 32 33 34 35 36 37 38 39 40 41 42 43 44 45 46 47 48 49 50
000
ASUS43 KLOT 231558
RWRIL

ILLINOIS REGIONAL WEATHER ROUNDUP
NATIONAL WEATHER SERVICE CHICAGO/ROMEOVILLE IL
1100 AM CDT WED JUL 23 2014

NOTE: "FAIR" INDICATES FEW OR NO CLOUDS BELOW 12,000 FEET WITH NO
SIGNIFICANT WEATHER AND/OR OBSTRUCTIONS TO VISIBILITY.

* THESE STATIONS ARE NOT UNDER NWS QUALITY CONTROL. THEY ALSO MAY NOT
  REPORT WEATHER SUCH AS PRECIPITATION OR FOG.

ILZ001-002-007-009-015-016-024-231700-
NORTHWEST ILLINOIS

CITY           SKY/WX    TMP DP  RH WIND       PRES   REMARKS
MOLINE         SUNNY     76  58  53 N15       30.17S
$$

ILZ003-004-008-010-011-017-018-231700-
NORTH CENTRAL ILLINOIS

CITY           SKY/WX    TMP DP  RH WIND       PRES   REMARKS
ROCKFORD       NOT AVBL
$$

ILZ005-006-012>014-019>023-231700-
NORTHEAST ILLINOIS

CITY           SKY/WX    TMP DP  RH WIND       PRES   REMARKS
CHICAGO-OHARE  MOSUNNY   70  53  54 NE17G25   30.15F
CHICAGO-MIDWAY MOSUNNY   70  57  63 N21G28    30.15R
AURORA         SUNNY     73  54  51 N16       30.16R
WAUKEGAN       SUNNY     68  55  63 N12G20    30.16S
DUPAGE AIRPORT SUNNY     74  55  51 NE14      30.15S
WHEELING       SUNNY     69  55  60 N15G25    30.18S
NORTHERLY ISL    N/A     65  56  72 N20         N/A
$$

LMZ740>746-231700-
SOUTHERN LAKE MICHIGAN

STATION/POSITION SKY/WX   TEMP    WIND        PRES    VSBY  WAVE
                          AIR SEA DIR/SP/G                  HT/PER
                          (F)     (DEG/KT/KT) (MB)    (MI)  (FT/S)
SOUTHERN BUOY              60 59  350/ 19/ 23 1020.7R         5/ 6
WAUKEGAN HARBOR            62      10/ 21/ 26 1022.4F
HARRISON CRIB              63     360/ 24/ 27   N/A
BURNHAM HARBOR             64     360/ 14/ 18   N/A
CALUMET HARBOR             65     340/ 14/ 19 1019.6S
MICHIGAN CITY              65     360/ 23/ 26   N/A
$$

ILZ025>027-034>036-040-047-049-050-058-095>099-231700-
WEST-CENTRAL ILLINOIS

CITY           SKY/WX    TMP DP  RH WIND       PRES   REMARKS
$$

ILZ028>032-037-038-041>044-048-051>054-059>061-231700-
CENTRAL ILLINOIS

CITY           SKY/WX    TMP DP  RH WIND       PRES   REMARKS
PEORIA         NOT AVBL
SPRINGFIELD    PTSUNNY   78  64  61 NE13      30.11R HX  80
TAYLORVILLE    NOT AVBL
$$

ILZ033-039-045-046-055>057-062-063-231700-
EAST-CENTRAL ILLINOIS

CITY           SKY/WX    TMP DP  RH WIND       PRES   REMARKS
CHAMPAIGN      PTSUNNY   73  62  68 NE14      30.10R
MATTOON        CLOUDY    69  63  81 N10       30.08R
$$

ILZ079-100>102-231700-
SOUTHWEST ILLINOIS

CITY           SKY/WX    TMP DP  RH WIND       PRES   REMARKS
ALTON          CLOUDY    75  75 100 N15       30.09R FOG
CAHOKIA*       CLOUDY    84  75  74 N12       30.05R HX  92
$$

ILZ064>066-069>071-074>076-080>082-084>086-088>090-092>094-231700-
SOUTH-CENTRAL ILLINOIS

CITY           SKY/WX    TMP DP  RH WIND       PRES   REMARKS
CARBONDALE     TSTM      71  67  87 SE21G30   30.08R FOG
MARION         TSTM      72  68  88 S16       30.10R
$$

ILZ067-068-072-073-078-083-087-091-231700-
SOUTHEAST ILLINOIS

CITY           SKY/WX    TMP DP  RH WIND       PRES   REMARKS
$$

ABBREVIATIONS USED IN REMARKS
   TC - TEMPERATURE IN CELSIUS
  WCI - WIND CHILL INDEX
   HX - HEAT INDEX
  VSB - VISIBILITY
$$




USA.gov is the U.S. government's official web portal to all federal, state and local government web resources and services.